BarenTS Sea — 9VAP5 — position and weather

sailwx.info

Track history (hours):
 
Tides and Currents Weather Stations Pressure Air Temp Water Temp Dewpoint Dewpoint Depression Visibility Wind Speed Wind Dir Waves Ship Positions

BarenTS Sea

Last reported at 2016-Dec-04 15:23 UTC. Time now 2016-Dec-05 02:21 UTC.
Position N 01°12' E 103°42'.

Length 248 m; draft 14.2 m.

Type: Tanker. MMSI: 563909000.

Date/timePositionNaut miles runAvg speedWind from/ knotsBaromVisibWave heightAir tempDewpointWater temp
2016-Dec-04 15:23N 01°12' E 103°42'3 0.1
2016-Dec-02 23:08N 01°13' E 103°40'8 5.2
2016-Dec-02 21:32N 01°10' E 103°47'1010.2
2016-Dec-02 20:33N 01°16' E 103°56'1 1.0
2016-Dec-02 19:14N 01°15' E 103°54'0 0.0
2016-Dec-02 18:32N 01°15' E 103°54'0 0.1
2016-Dec-02 17:23N 01°15' E 103°54'0 0.1
2016-Dec-02 16:32N 01°16' E 103°54'0 0.0
2016-Dec-02 08:26N 01°16' E 103°55'0 0.0
2016-Dec-02 05:29N 01°16' E 103°55'0 0.1
2016-Dec-02 04:32N 01°15' E 103°55'0 0.1
2016-Dec-02 02:29N 01°15' E 103°54'0 0.0
2016-Dec-02 01:23N 01°15' E 103°54'0 0.0
2016-Dec-02 00:29N 01°15' E 103°54'0 0.0
2016-Dec-01 23:29N 01°15' E 103°54'0 0.0
2016-Dec-01 22:17N 01°15' E 103°54'0 0.0
2016-Dec-01 20:17N 01°15' E 103°54'0 0.1
2016-Dec-01 19:29N 01°15' E 103°54'0 0.1
2016-Dec-01 18:23N 01°15' E 103°54'0 0.0
2016-Dec-01 17:05N 01°15' E 103°54'0 0.0
2016-Dec-01 16:20N 01°15' E 103°54'0 0.1
2016-Dec-01 14:23N 01°16' E 103°55'0 0.0
2016-Dec-01 08:29N 01°16' E 103°55'0 0.0
2016-Dec-01 07:29N 01°16' E 103°55'0 0.0
2016-Dec-01 06:32N 01°16' E 103°55'0 0.1
2016-Dec-01 03:29N 01°15' E 103°54'0 0.0
2016-Dec-01 02:29N 01°15' E 103°54'0 0.0
2016-Dec-01 01:23N 01°15' E 103°54'0 0.0
2016-Nov-30 23:26N 01°15' E 103°54'0 0.0
2016-Nov-30 22:17N 01°15' E 103°54'0 0.0
2016-Nov-30 21:32N 01°15' E 103°54'0 0.0
2016-Nov-30 20:26N 01°15' E 103°54'0 0.0
2016-Nov-30 19:29N 01°15' E 103°54'0 0.0
2016-Nov-30 18:29N 01°15' E 103°54'0 0.0
2016-Nov-30 17:26N 01°15' E 103°54'0 0.0
2016-Nov-30 16:20N 01°15' E 103°54'0 0.0
2016-Nov-30 14:20N 01°15' E 103°54'0 0.1
2016-Nov-30 12:29N 01°16' E 103°55'0 0.0
2016-Nov-30 10:20N 01°16' E 103°54'0 0.0
2016-Nov-30 08:11N 01°16' E 103°55'0 0.1
2016-Nov-30 04:29N 01°15' E 103°55'1 0.4
2016-Nov-30 02:33N 01°15' E 103°54'5 2.5
2016-Nov-30 00:25N 01°11' E 103°51'69 6.4
2016-Nov-29 13:33N 01°38' E 102°47'21 8.4
2016-Nov-29 11:04N 01°47' E 102°28'5 9.1
2016-Nov-29 10:33N 01°49' E 102°24'  
Track history (hours):
 
Tides and Currents Weather Stations Pressure Air Temp Water Temp Dewpoint Dewpoint Depression Visibility Wind Speed Wind Dir Waves Ship Positions

BarenTS Sea

Last reported at 2016-Dec-04 15:23 UTC. Time now 2016-Dec-05 02:21 UTC.
Position N 01°12' E 103°42'.

Length 248 m; draft 14.2 m.

Type: Tanker. MMSI: 563909000.

Date/timePositionNaut miles runAvg speedWind from/ knotsBaromVisibWave heightAir tempDewpointWater temp
2016-Dec-04 15:23N 01°12' E 103°42'3 0.1
2016-Dec-02 23:08N 01°13' E 103°40'8 5.2
2016-Dec-02 21:32N 01°10' E 103°47'1010.2
2016-Dec-02 20:33N 01°16' E 103°56'1 1.0
2016-Dec-02 19:14N 01°15' E 103°54'0 0.0
2016-Dec-02 18:32N 01°15' E 103°54'0 0.1
2016-Dec-02 17:23N 01°15' E 103°54'0 0.1
2016-Dec-02 16:32N 01°16' E 103°54'0 0.0
2016-Dec-02 08:26N 01°16' E 103°55'0 0.0
2016-Dec-02 05:29N 01°16' E 103°55'0 0.1
2016-Dec-02 04:32N 01°15' E 103°55'0 0.1
2016-Dec-02 02:29N 01°15' E 103°54'0 0.0
2016-Dec-02 01:23N 01°15' E 103°54'0 0.0
2016-Dec-02 00:29N 01°15' E 103°54'0 0.0
2016-Dec-01 23:29N 01°15' E 103°54'0 0.0
2016-Dec-01 22:17N 01°15' E 103°54'0 0.0
2016-Dec-01 20:17N 01°15' E 103°54'0 0.1
2016-Dec-01 19:29N 01°15' E 103°54'0 0.1
2016-Dec-01 18:23N 01°15' E 103°54'0 0.0
2016-Dec-01 17:05N 01°15' E 103°54'0 0.0
2016-Dec-01 16:20N 01°15' E 103°54'0 0.1
2016-Dec-01 14:23N 01°16' E 103°55'0 0.0
2016-Dec-01 08:29N 01°16' E 103°55'0 0.0
2016-Dec-01 07:29N 01°16' E 103°55'0 0.0
2016-Dec-01 06:32N 01°16' E 103°55'0 0.1
2016-Dec-01 03:29N 01°15' E 103°54'0 0.0
2016-Dec-01 02:29N 01°15' E 103°54'0 0.0
2016-Dec-01 01:23N 01°15' E 103°54'0 0.0
2016-Nov-30 23:26N 01°15' E 103°54'0 0.0
2016-Nov-30 22:17N 01°15' E 103°54'0 0.0
2016-Nov-30 21:32N 01°15' E 103°54'0 0.0
2016-Nov-30 20:26N 01°15' E 103°54'0 0.0
2016-Nov-30 19:29N 01°15' E 103°54'0 0.0
2016-Nov-30 18:29N 01°15' E 103°54'0 0.0
2016-Nov-30 17:26N 01°15' E 103°54'0 0.0
2016-Nov-30 16:20N 01°15' E 103°54'0 0.0
2016-Nov-30 14:20N 01°15' E 103°54'0 0.1
2016-Nov-30 12:29N 01°16' E 103°55'0 0.0
2016-Nov-30 10:20N 01°16' E 103°54'0 0.0
2016-Nov-30 08:11N 01°16' E 103°55'0 0.1
2016-Nov-30 04:29N 01°15' E 103°55'1 0.4
2016-Nov-30 02:33N 01°15' E 103°54'5 2.5
2016-Nov-30 00:25N 01°11' E 103°51'69 6.4
2016-Nov-29 13:33N 01°38' E 102°47'21 8.4
2016-Nov-29 11:04N 01°47' E 102°28'5 9.1
2016-Nov-29 10:33N 01°49' E 102°24'  

Dump ship's entire track history